Time,TemperatureF,DewpointF,PressureIn,WindDirection,WindDirectionDegrees,WindSpeedMPH,WindSpeedGustMPH,Humidity,HourlyPrecipIn,Conditions,Clouds,dailyrainin,SoftwareType,DateUTC
2013-05-10 00:01:00,57.4,55.1,29.90,NE,39,2.0,-999.0,92,0.00,,,0.00,WeatherSnoop3.0,2013-05-10 05:01:00,
2013-05-10 00:06:00,57.3,55.0,29.90,NE,40,2.0,-999.0,92,0.00,,,0.00,WeatherSnoop3.0,2013-05-10 05:06:00,
2013-05-10 00:11:00,57.2,54.9,29.91,North,4,2.0,-999.0,92,0.00,,,0.00,WeatherSnoop3.0,2013-05-10 05:11:00,
2013-05-10 00:16:00,57.1,54.8,29.91,NNE,20,5.0,-999.0,92,0.00,,,0.00,WeatherSnoop3.0,2013-05-10 05:16:00,
2013-05-10 00:21:00,57.0,54.7,29.91,NNE,23,5.0,-999.0,92,0.00,,,0.00,WeatherSnoop3.0,2013-05-10 05:21:00,
2013-05-10 00:26:00,56.9,54.6,29.90,NNW,342,2.0,-999.0,92,0.00,,,0.00,WeatherSnoop3.0,2013-05-10 05:26:00,
2013-05-10 00:31:00,56.7,54.4,29.91,North,351,2.0,-999.0,92,0.00,,,0.00,WeatherSnoop3.0,2013-05-10 05:31:00,
2013-05-10 00:36:00,56.5,54.2,29.91,NNW,340,2.0,-999.0,92,0.00,,,0.00,WeatherSnoop3.0,2013-05-10 05:36:00,
2013-05-10 00:41:00,56.1,53.8,29.90,NNE,22,3.0,-999.0,92,0.00,,,0.00,WeatherSnoop3.0,2013-05-10 05:41:00,
2013-05-10 00:46:00,56.0,54.0,29.90,NNE,12,5.0,-999.0,93,0.00,,,0.00,WeatherSnoop3.0,2013-05-10 05:46:00,
2013-05-10 00:51:00,55.8,53.8,29.91,North,6,7.0,-999.0,93,0.00,,,0.00,WeatherSnoop3.0,2013-05-10 05:51:00,
2013-05-10 00:56:00,55.8,53.8,29.91,NNE,29,1.0,-999.0,93,0.00,,,0.00,WeatherSnoop3.0,2013-05-10 05:56:00,
2013-05-10 01:01:00,55.7,53.7,29.91,NE,41,3.0,-999.0,93,0.00,,,0.00,WeatherSnoop3.0,2013-05-10 06:01:00,
2013-05-10 01:06:00,55.6,53.6,29.91,North,4,3.0,-999.0,93,0.00,,,0.00,WeatherSnoop3.0,2013-05-10 06:06:00,
2013-05-10 01:11:00,55.5,53.5,29.91,North,8,3.0,-999.0,93,0.00,,,0.00,WeatherSnoop3.0,2013-05-10 06:11:00,
2013-05-10 01:16:00,55.4,53.4,29.91,NNE,26,2.0,-999.0,93,0.00,,,0.00,WeatherSnoop3.0,2013-05-10 06:16:00,
2013-05-10 01:21:00,55.3,53.3,29.91,NE,39,3.0,-999.0,93,0.00,,,0.00,WeatherSnoop3.0,2013-05-10 06:21:00,
2013-05-10 01:26:00,55.2,53.2,29.91,NNW,331,3.0,-999.0,93,0.00,,,0.00,WeatherSnoop3.0,2013-05-10 06:26:00,
2013-05-10 01:31:00,55.0,53.0,29.91,ENE,68,2.0,-999.0,93,0.00,,,0.00,WeatherSnoop3.0,2013-05-10 06:31:00,
2013-05-10 01:36:00,54.9,52.9,29.91,NNE,30,1.0,-999.0,93,0.00,,,0.00,WeatherSnoop3.0,2013-05-10 06:36:00,
2013-05-10 01:41:00,54.8,52.8,29.91,NNE,12,1.0,-999.0,93,0.00,,,0.00,WeatherSnoop3.0,2013-05-10 06:41:00,
2013-05-10 01:46:00,54.6,52.6,29.91,NE,34,1.0,-999.0,93,0.00,,,0.00,WeatherSnoop3.0,2013-05-10 06:46:00,
2013-05-10 01:51:00,54.4,52.7,29.90,NNE,18,1.0,-999.0,94,0.00,,,0.00,WeatherSnoop3.0,2013-05-10 06:51:00,
2013-05-10 01:56:00,54.3,52.6,29.90,NE,43,0.0,-999.0,94,0.00,,,0.00,WeatherSnoop3.0,2013-05-10 06:56:00,
2013-05-10 02:01:00,54.3,52.6,29.89,NNE,18,3.0,-999.0,94,0.00,,,0.00,WeatherSnoop3.0,2013-05-10 07:01:00,
2013-05-10 02:06:00,54.2,52.2,29.89,ENE,65,2.0,-999.0,93,0.00,,,0.00,WeatherSnoop3.0,2013-05-10 07:06:00,
2013-05-10 02:11:00,54.1,52.1,29.89,NNE,23,3.0,-999.0,93,0.00,,,0.00,WeatherSnoop3.0,2013-05-10 07:11:00,
2013-05-10 02:16:00,54.0,52.0,29.89,NNW,331,3.0,-999.0,93,0.00,,,0.00,WeatherSnoop3.0,2013-05-10 07:16:00,
2013-05-10 02:21:00,53.9,51.9,29.88,NNE,15,1.0,-999.0,93,0.00,,,0.00,WeatherSnoop3.0,2013-05-10 07:21:00,
2013-05-10 02:26:00,53.8,51.8,29.88,NNE,19,3.0,-999.0,93,0.00,,,0.00,WeatherSnoop3.0,2013-05-10 07:26:00,
2013-05-10 02:31:00,53.7,51.7,29.89,NE,43,3.0,-999.0,93,0.00,,,0.00,WeatherSnoop3.0,2013-05-10 07:31:00,
2013-05-10 02:36:00,53.6,51.6,29.89,NNE,20,2.0,-999.0,93,0.00,,,0.00,WeatherSnoop3.0,2013-05-10 07:36:00,
2013-05-10 02:41:00,53.4,51.4,29.89,NE,43,2.0,-999.0,93,0.00,,,0.00,WeatherSnoop3.0,2013-05-10 07:41:00,
2013-05-10 02:46:00,53.4,51.7,29.89,NNE,26,4.0,-999.0,94,0.00,,,0.00,WeatherSnoop3.0,2013-05-10 07:46:00,
2013-05-10 02:51:00,53.3,51.6,29.89,North,8,1.0,-999.0,94,0.00,,,0.00,WeatherSnoop3.0,2013-05-10 07:51:00,
2013-05-10 02:56:00,53.3,51.6,29.89,NNE,14,2.0,-999.0,94,0.00,,,0.00,WeatherSnoop3.0,2013-05-10 07:56:00,
2013-05-10 03:01:00,53.2,51.5,29.89,North,4,2.0,-999.0,94,0.00,,,0.00,WeatherSnoop3.0,2013-05-10 08:01:00,
2013-05-10 03:06:00,53.0,51.3,29.89,North,356,0.0,-999.0,94,0.00,,,0.00,WeatherSnoop3.0,2013-05-10 08:06:00,
2013-05-10 03:11:00,52.9,51.2,29.90,NE,41,1.0,-999.0,94,0.00,,,0.00,WeatherSnoop3.0,2013-05-10 08:11:00,
2013-05-10 03:16:00,52.8,51.1,29.90,NNE,24,1.0,-999.0,94,0.00,,,0.00,WeatherSnoop3.0,2013-05-10 08:16:00,
2013-05-10 03:21:00,52.6,50.9,29.90,NE,43,0.0,-999.0,94,0.00,,,0.00,WeatherSnoop3.0,2013-05-10 08:21:00,
2013-05-10 03:26:00,52.4,50.7,29.90,North,8,0.0,-999.0,94,0.00,,,0.00,WeatherSnoop3.0,2013-05-10 08:26:00,
2013-05-10 03:31:00,52.2,50.5,29.90,NNE,13,0.0,-999.0,94,0.00,,,0.00,WeatherSnoop3.0,2013-05-10 08:31:00,
2013-05-10 03:36:00,52.0,50.3,29.90,NNE,32,0.0,-999.0,94,0.00,,,0.00,WeatherSnoop3.0,2013-05-10 08:36:00,
2013-05-10 03:41:00,51.8,50.4,29.89,NNE,26,1.0,-999.0,95,0.00,,,0.00,WeatherSnoop3.0,2013-05-10 08:41:00,
2013-05-10 03:46:00,51.7,50.3,29.89,North,5,0.0,-999.0,95,0.00,,,0.00,WeatherSnoop3.0,2013-05-10 08:46:00,
2013-05-10 03:51:00,51.5,50.1,29.90,NW,325,0.0,-999.0,95,0.00,,,0.00,WeatherSnoop3.0,2013-05-10 08:51:00,
2013-05-10 03:56:00,51.3,49.9,29.90,NNW,335,0.0,-999.0,95,0.00,,,0.00,WeatherSnoop3.0,2013-05-10 08:56:00,
2013-05-10 04:01:00,51.2,49.8,29.90,NNW,331,0.0,-999.0,95,0.00,,,0.00,WeatherSnoop3.0,2013-05-10 09:01:00,
2013-05-10 04:06:00,51.1,50.0,29.90,NW,311,0.0,-999.0,96,0.00,,,0.00,WeatherSnoop3.0,2013-05-10 09:06:00,
2013-05-10 04:11:00,51.0,49.9,29.90,West,267,0.0,-999.0,96,0.00,,,0.00,WeatherSnoop3.0,2013-05-10 09:11:00,
2013-05-10 04:16:00,50.9,49.8,29.90,NW,316,0.0,-999.0,96,0.00,,,0.00,WeatherSnoop3.0,2013-05-10 09:16:00,
2013-05-10 04:21:00,50.8,49.7,29.90,NW,314,0.0,-999.0,96,0.00,,,0.00,WeatherSnoop3.0,2013-05-10 09:21:00,
2013-05-10 04:26:00,50.7,49.6,29.90,NNW,329,0.0,-999.0,96,0.00,,,0.00,WeatherSnoop3.0,2013-05-10 09:26:00,
2013-05-10 04:31:00,50.7,49.6,29.90,North,1,0.0,-999.0,96,0.00,,,0.00,WeatherSnoop3.0,2013-05-10 09:31:00,
2013-05-10 04:36:00,50.6,49.5,29.90,WNW,295,0.0,-999.0,96,0.00,,,0.00,WeatherSnoop3.0,2013-05-10 09:36:00,
2013-05-10 04:41:00,50.6,49.5,29.90,NW,318,0.0,-999.0,96,0.00,,,0.00,WeatherSnoop3.0,2013-05-10 09:41:00,
2013-05-10 04:46:00,50.4,49.3,29.89,NW,322,0.0,-999.0,96,0.00,,,0.00,WeatherSnoop3.0,2013-05-10 09:46:00,
2013-05-10 04:51:00,50.3,49.2,29.89,NE,56,0.0,-999.0,96,0.00,,,0.00,WeatherSnoop3.0,2013-05-10 09:51:00,
2013-05-10 04:56:00,50.4,49.6,29.89,NNW,347,0.0,-999.0,97,0.00,,,0.00,WeatherSnoop3.0,2013-05-10 09:56:00,
2013-05-10 05:01:00,50.6,49.8,29.89,WNW,282,1.0,-999.0,97,0.00,,,0.00,WeatherSnoop3.0,2013-05-10 10:01:00,
2013-05-10 05:06:00,50.8,50.0,29.90,NE,43,0.0,-999.0,97,0.00,,,0.00,WeatherSnoop3.0,2013-05-10 10:06:00,
2013-05-10 05:11:00,51.1,50.3,29.90,NW,309,0.0,-999.0,97,0.00,,,0.00,WeatherSnoop3.0,2013-05-10 10:11:00,
2013-05-10 05:16:00,51.2,50.4,29.90,NW,304,0.0,-999.0,97,0.00,,,0.00,WeatherSnoop3.0,2013-05-10 10:16:00,
2013-05-10 05:21:00,51.1,50.3,29.90,NNW,328,0.0,-999.0,97,0.00,,,0.00,WeatherSnoop3.0,2013-05-10 10:21:00,
2013-05-10 05:26:00,51.0,50.2,29.90,NNE,33,0.0,-999.0,97,0.00,,,0.00,WeatherSnoop3.0,2013-05-10 10:26:00,
2013-05-10 05:31:00,51.0,50.2,29.90,NW,316,0.0,-999.0,97,0.00,,,0.00,WeatherSnoop3.0,2013-05-10 10:31:00,
2013-05-10 05:36:00,51.1,50.3,29.90,NNW,332,0.0,-999.0,97,0.00,,,0.00,WeatherSnoop3.0,2013-05-10 10:36:00,
2013-05-10 05:41:00,51.4,50.6,29.90,North,8,0.0,-999.0,97,0.00,,,0.00,WeatherSnoop3.0,2013-05-10 10:41:00,
2013-05-10 05:46:00,51.6,50.8,29.90,North,349,1.0,-999.0,97,0.00,,,0.00,WeatherSnoop3.0,2013-05-10 10:46:00,
2013-05-10 05:51:00,51.9,51.1,29.90,ENE,60,0.0,-999.0,97,0.00,,,0.00,WeatherSnoop3.0,2013-05-10 10:51:00,
2013-05-10 05:56:00,52.2,51.4,29.90,West,276,0.0,-999.0,97,0.00,,,0.00,WeatherSnoop3.0,2013-05-10 10:56:00,
2013-05-10 06:01:00,52.4,51.6,29.90,NE,37,1.0,-999.0,97,0.00,,,0.00,WeatherSnoop3.0,2013-05-10 11:01:00,
2013-05-10 06:06:00,52.7,51.9,29.90,NNE,16,1.0,-999.0,97,0.00,,,0.00,WeatherSnoop3.0,2013-05-10 11:06:00,
2013-05-10 06:11:00,53.0,52.2,29.90,WNW,284,1.0,-999.0,97,0.00,,,0.00,WeatherSnoop3.0,2013-05-10 11:11:00,
2013-05-10 06:16:00,53.4,52.6,29.90,NE,50,0.0,-999.0,97,0.00,,,0.00,WeatherSnoop3.0,2013-05-10 11:16:00,
2013-05-10 06:21:00,53.7,52.9,29.90,NNW,330,1.0,-999.0,97,0.00,,,0.00,WeatherSnoop3.0,2013-05-10 11:21:00,
2013-05-10 06:26:00,53.9,53.1,29.90,NNE,26,2.0,-999.0,97,0.00,,,0.00,WeatherSnoop3.0,2013-05-10 11:26:00,
2013-05-10 06:31:00,54.1,53.3,29.91,North,351,0.0,-999.0,97,0.00,,,0.00,WeatherSnoop3.0,2013-05-10 11:31:00,
2013-05-10 06:36:00,54.3,53.5,29.91,North,357,1.0,-999.0,97,0.00,,,0.00,WeatherSnoop3.0,2013-05-10 11:36:00,
2013-05-10 06:41:00,54.5,53.7,29.91,WSW,242,0.0,-999.0,97,0.00,,,0.00,WeatherSnoop3.0,2013-05-10 11:41:00,
2013-05-10 06:46:00,54.7,53.6,29.91,NNE,20,1.0,-999.0,96,0.00,,,0.00,WeatherSnoop3.0,2013-05-10 11:46:00,
2013-05-10 06:51:00,54.8,53.7,29.91,NNE,18,0.0,-999.0,96,0.00,,,0.00,WeatherSnoop3.0,2013-05-10 11:51:00,
2013-05-10 06:56:00,55.0,53.9,29.91,NE,34,2.0,-999.0,96,0.00,,,0.00,WeatherSnoop3.0,2013-05-10 11:56:00,
2013-05-10 07:01:00,55.2,54.1,29.92,North,352,2.0,-999.0,96,0.00,,,0.00,WeatherSnoop3.0,2013-05-10 12:01:00,
2013-05-10 07:06:00,55.4,54.3,29.92,NNE,26,7.0,-999.0,96,0.00,,,0.00,WeatherSnoop3.0,2013-05-10 12:06:00,
2013-05-10 07:11:00,55.5,54.1,29.92,North,349,3.0,-999.0,95,0.00,,,0.00,WeatherSnoop3.0,2013-05-10 12:11:00,
2013-05-10 07:16:00,55.6,54.2,29.92,NE,36,2.0,-999.0,95,0.00,,,0.00,WeatherSnoop3.0,2013-05-10 12:16:00,
2013-05-10 07:21:00,55.7,54.3,29.92,NE,43,0.0,-999.0,95,0.00,,,0.00,WeatherSnoop3.0,2013-05-10 12:21:00,
2013-05-10 07:26:00,55.9,54.5,29.92,NNE,26,2.0,-999.0,95,0.00,,,0.00,WeatherSnoop3.0,2013-05-10 12:26:00,
2013-05-10 07:31:00,55.9,54.5,29.92,NNW,343,3.0,-999.0,95,0.00,,,0.00,WeatherSnoop3.0,2013-05-10 12:31:00,
2013-05-10 07:36:00,56.0,54.6,29.92,NNE,22,1.0,-999.0,95,0.00,,,0.00,WeatherSnoop3.0,2013-05-10 12:36:00,
2013-05-10 07:41:00,56.1,54.7,29.92,NNE,12,5.0,-999.0,95,0.00,,,0.00,WeatherSnoop3.0,2013-05-10 12:41:00,
2013-05-10 07:46:00,56.1,54.7,29.92,NE,43,4.0,-999.0,95,0.00,,,0.00,WeatherSnoop3.0,2013-05-10 12:46:00,
2013-05-10 07:51:00,56.1,54.4,29.93,North,354,3.0,-999.0,94,0.00,,,0.00,WeatherSnoop3.0,2013-05-10 12:51:00,
2013-05-10 07:56:00,56.3,54.6,29.93,NNE,24,3.0,-999.0,94,0.00,,,0.00,WeatherSnoop3.0,2013-05-10 12:56:00,
2013-05-10 08:01:00,56.4,54.7,29.93,NNE,20,2.0,-999.0,94,0.00,,,0.00,WeatherSnoop3.0,2013-05-10 13:01:00,
2013-05-10 08:06:00,56.4,54.7,29.93,NE,41,2.0,-999.0,94,0.00,,,0.00,WeatherSnoop3.0,2013-05-10 13:06:00,
2013-05-10 08:11:00,56.5,54.8,29.94,NE,36,4.0,-999.0,94,0.00,,,0.00,WeatherSnoop3.0,2013-05-10 13:11:00,
2013-05-10 08:16:00,56.6,54.9,29.94,NE,49,2.0,-999.0,94,0.00,,,0.00,WeatherSnoop3.0,2013-05-10 13:16:00,
2013-05-10 08:21:00,56.7,55.0,29.93,NE,49,4.0,-999.0,94,0.00,,,0.00,WeatherSnoop3.0,2013-05-10 13:21:00,
2013-05-10 08:26:00,56.9,55.2,29.94,NNE,29,6.0,-999.0,94,0.00,,,0.00,WeatherSnoop3.0,2013-05-10 13:26:00,
2013-05-10 08:31:00,57.2,55.5,29.94,North,353,3.0,-999.0,94,0.00,,,0.00,WeatherSnoop3.0,2013-05-10 13:31:00,
2013-05-10 08:36:00,57.4,55.4,29.94,NNE,20,2.0,-999.0,93,0.00,,,0.00,WeatherSnoop3.0,2013-05-10 13:36:00,
2013-05-10 08:41:00,57.6,55.6,29.94,NNE,20,5.0,-999.0,93,0.00,,,0.00,WeatherSnoop3.0,2013-05-10 13:41:00,
2013-05-10 08:46:00,57.7,55.7,29.94,North,349,5.0,-999.0,93,0.00,,,0.00,WeatherSnoop3.0,2013-05-10 13:46:00,
2013-05-10 08:51:00,57.7,55.7,29.95,NNE,18,4.0,-999.0,93,0.00,,,0.00,WeatherSnoop3.0,2013-05-10 13:51:00,
2013-05-10 08:56:00,57.8,55.5,29.95,NE,34,7.0,-999.0,92,0.00,,,0.00,WeatherSnoop3.0,2013-05-10 13:56:00,
2013-05-10 09:01:00,57.9,55.6,29.95,NE,48,2.0,-999.0,92,0.00,,,0.00,WeatherSnoop3.0,2013-05-10 14:01:00,
2013-05-10 09:06:00,58.2,55.6,29.96,NNE,20,2.0,-999.0,91,0.00,,,0.00,WeatherSnoop3.0,2013-05-10 14:06:00,
2013-05-10 09:11:00,58.2,55.3,29.96,NE,36,2.0,-999.0,90,0.00,,,0.00,WeatherSnoop3.0,2013-05-10 14:11:00,
2013-05-10 09:16:00,58.1,55.2,29.96,NE,36,3.0,-999.0,90,0.00,,,0.00,WeatherSnoop3.0,2013-05-10 14:16:00,
2013-05-10 09:21:00,57.8,54.9,29.96,NNE,20,7.0,-999.0,90,0.00,,,0.00,WeatherSnoop3.0,2013-05-10 14:21:00,
2013-05-10 09:26:00,57.5,54.6,29.96,NE,36,6.0,-999.0,90,0.00,,,0.00,WeatherSnoop3.0,2013-05-10 14:26:00,
2013-05-10 09:31:00,57.2,54.3,29.96,North,6,6.0,-999.0,90,0.00,,,0.00,WeatherSnoop3.0,2013-05-10 14:31:00,
2013-05-10 09:36:00,57.0,53.8,29.96,NNE,17,6.0,-999.0,89,0.00,,,0.00,WeatherSnoop3.0,2013-05-10 14:36:00,
2013-05-10 09:41:00,56.9,54.0,29.97,NNE,23,1.0,-999.0,90,0.00,,,0.00,WeatherSnoop3.0,2013-05-10 14:41:00,
2013-05-10 09:46:00,56.8,53.9,29.97,North,11,2.0,-999.0,90,0.00,,,0.00,WeatherSnoop3.0,2013-05-10 14:46:00,
2013-05-10 09:51:00,56.7,53.8,29.97,NNE,20,6.0,-999.0,90,0.00,,,0.00,WeatherSnoop3.0,2013-05-10 14:51:00,
2013-05-10 09:56:00,56.7,53.8,29.97,ENE,59,9.0,-999.0,90,0.00,,,0.00,WeatherSnoop3.0,2013-05-10 14:56:00,
2013-05-10 10:01:00,56.8,53.6,29.97,NNE,29,5.0,-999.0,89,0.00,,,0.00,WeatherSnoop3.0,2013-05-10 15:01:00,
2013-05-10 10:06:00,57.1,54.2,29.97,NNE,16,2.0,-999.0,90,0.00,,,0.00,WeatherSnoop3.0,2013-05-10 15:06:00,
2013-05-10 10:11:00,57.4,54.2,29.98,NNE,18,5.0,-999.0,89,0.00,,,0.00,WeatherSnoop3.0,2013-05-10 15:11:00,
2013-05-10 10:16:00,57.6,54.4,29.98,NNW,336,3.0,-999.0,89,0.00,,,0.00,WeatherSnoop3.0,2013-05-10 15:16:00,
2013-05-10 10:21:00,58.1,54.6,29.98,North,354,1.0,-999.0,88,0.00,,,0.00,WeatherSnoop3.0,2013-05-10 15:21:00,
2013-05-10 10:26:00,58.2,54.3,29.98,NNE,15,4.0,-999.0,87,0.00,,,0.00,WeatherSnoop3.0,2013-05-10 15:26:00,
2013-05-10 10:31:00,58.3,54.4,29.98,NE,36,8.0,-999.0,87,0.00,,,0.00,WeatherSnoop3.0,2013-05-10 15:31:00,
2013-05-10 10:36:00,58.2,54.0,29.98,NE,56,1.0,-999.0,86,0.00,,,0.00,WeatherSnoop3.0,2013-05-10 15:36:00,
2013-05-10 10:41:00,58.4,54.5,29.98,NNE,27,1.0,-999.0,87,0.00,,,0.00,WeatherSnoop3.0,2013-05-10 15:41:00,
2013-05-10 10:45:00,58.2,54.0,29.99,NNW,338,5.0,-999.0,86,0.00,,,0.00,WeatherSnoop3.0,2013-05-10 15:45:00,
2013-05-10 10:50:00,58.2,54.3,29.99,NNE,26,9.0,-999.0,87,0.00,,,0.00,WeatherSnoop3.0,2013-05-10 15:50:00,
2013-05-10 10:56:00,58.2,53.7,29.99,North,11,7.0,-999.0,85,0.00,,,0.00,WeatherSnoop3.0,2013-05-10 15:56:00,
2013-05-10 11:00:00,58.4,53.9,29.99,NE,39,3.0,-999.0,85,0.00,,,0.00,WeatherSnoop3.0,2013-05-10 16:00:00,
2013-05-10 11:05:00,58.6,54.4,29.99,North,11,5.0,-999.0,86,0.00,,,0.00,WeatherSnoop3.0,2013-05-10 16:05:00,
2013-05-10 11:11:00,58.8,54.3,29.99,North,11,8.0,-999.0,85,0.00,,,0.00,WeatherSnoop3.0,2013-05-10 16:11:00,
2013-05-10 11:15:00,59.5,54.7,29.99,North,11,2.0,-999.0,84,0.00,,,0.00,WeatherSnoop3.0,2013-05-10 16:15:00,
2013-05-10 11:20:00,60.4,54.5,30.00,NE,36,9.0,-999.0,81,0.00,,,0.00,WeatherSnoop3.0,2013-05-10 16:20:00,
2013-05-10 11:25:00,60.3,54.8,29.99,NE,46,1.0,-999.0,82,0.00,,,0.00,WeatherSnoop3.0,2013-05-10 16:25:00,
2013-05-10 11:30:00,60.8,54.9,30.00,NNW,327,2.0,-999.0,81,0.00,,,0.00,WeatherSnoop3.0,2013-05-10 16:30:00,
2013-05-10 11:35:00,60.8,54.2,30.00,NNW,335,2.0,-999.0,79,0.00,,,0.00,WeatherSnoop3.0,2013-05-10 16:35:00,
2013-05-10 11:40:00,61.3,54.4,30.00,NNE,20,5.0,-999.0,78,0.00,,,0.00,WeatherSnoop3.0,2013-05-10 16:40:00,
2013-05-10 11:45:00,62.2,54.9,30.00,NNE,20,5.0,-999.0,77,0.00,,,0.00,WeatherSnoop3.0,2013-05-10 16:45:00,
2013-05-10 11:50:00,62.3,54.3,30.00,NE,39,3.0,-999.0,75,0.00,,,0.00,WeatherSnoop3.0,2013-05-10 16:50:00,
2013-05-10 11:55:00,62.5,55.2,30.00,ENE,59,2.0,-999.0,77,0.00,,,0.00,WeatherSnoop3.0,2013-05-10 16:55:00,
2013-05-10 12:00:00,63.0,55.3,30.00,WNW,298,2.0,-999.0,76,0.00,,,0.00,WeatherSnoop3.0,2013-05-10 17:00:00,
2013-05-10 12:05:00,62.6,54.6,30.00,NE,41,1.0,-999.0,75,0.00,,,0.00,WeatherSnoop3.0,2013-05-10 17:05:00,
2013-05-10 12:10:00,62.4,54.4,30.00,NNE,17,2.0,-999.0,75,0.00,,,0.00,WeatherSnoop3.0,2013-05-10 17:10:00,
2013-05-10 12:15:00,63.3,54.9,30.00,NE,37,5.0,-999.0,74,0.00,,,0.00,WeatherSnoop3.0,2013-05-10 17:15:00,
2013-05-10 12:20:00,63.7,55.3,29.99,SSW,211,0.0,-999.0,74,0.00,,,0.00,WeatherSnoop3.0,2013-05-10 17:20:00,
2013-05-10 12:25:00,65.0,56.5,29.99,NNE,13,2.0,-999.0,74,0.00,,,0.00,WeatherSnoop3.0,2013-05-10 17:25:00,
2013-05-10 12:30:00,65.1,55.1,29.99,NNE,30,8.0,-999.0,70,0.00,,,0.00,WeatherSnoop3.0,2013-05-10 17:30:00,
2013-05-10 12:35:00,64.7,55.1,29.99,NNE,15,4.0,-999.0,71,0.00,,,0.00,WeatherSnoop3.0,2013-05-10 17:35:00,
2013-05-10 12:40:00,65.4,55.4,29.99,NE,43,6.0,-999.0,70,0.00,,,0.00,WeatherSnoop3.0,2013-05-10 17:40:00,
2013-05-10 12:45:00,66.2,57.7,29.98,NNW,328,1.0,-999.0,74,0.00,,,0.00,WeatherSnoop3.0,2013-05-10 17:45:00,
2013-05-10 12:50:00,65.2,54.8,29.98,NE,39,4.0,-999.0,69,0.00,,,0.00,WeatherSnoop3.0,2013-05-10 17:50:00,
2013-05-10 12:55:00,65.0,54.2,29.98,NNE,16,1.0,-999.0,68,0.00,,,0.00,WeatherSnoop3.0,2013-05-10 17:55:00,
2013-05-10 13:00:00,65.2,55.2,29.98,NNE,26,8.0,-999.0,70,0.00,,,0.00,WeatherSnoop3.0,2013-05-10 18:00:00,
2013-05-10 13:05:00,65.4,54.6,29.98,NNW,346,5.0,-999.0,68,0.00,,,0.00,WeatherSnoop3.0,2013-05-10 18:05:00,
2013-05-10 13:10:00,65.9,55.0,29.98,NNE,24,6.0,-999.0,68,0.00,,,0.00,WeatherSnoop3.0,2013-05-10 18:10:00,
2013-05-10 13:15:00,66.7,55.4,29.98,NNE,27,4.0,-999.0,67,0.00,,,0.00,WeatherSnoop3.0,2013-05-10 18:15:00,
2013-05-10 13:20:00,66.0,53.9,29.98,West,278,1.0,-999.0,65,0.00,,,0.00,WeatherSnoop3.0,2013-05-10 18:20:00,
2013-05-10 13:25:00,65.8,55.3,29.98,NNE,15,6.0,-999.0,69,0.00,,,0.00,WeatherSnoop3.0,2013-05-10 18:25:00,
2013-05-10 13:30:00,66.0,54.7,29.97,NE,39,3.0,-999.0,67,0.00,,,0.00,WeatherSnoop3.0,2013-05-10 18:30:00,
2013-05-10 13:35:00,66.4,55.1,29.97,NNE,19,7.0,-999.0,67,0.00,,,0.00,WeatherSnoop3.0,2013-05-10 18:35:00,
2013-05-10 13:40:00,66.0,54.7,29.97,NE,53,6.0,-999.0,67,0.00,,,0.00,WeatherSnoop3.0,2013-05-10 18:40:00,
2013-05-10 13:45:00,65.7,54.8,29.97,NNE,33,6.0,-999.0,68,0.00,,,0.00,WeatherSnoop3.0,2013-05-10 18:45:00,
2013-05-10 13:50:00,65.5,55.1,29.97,NE,56,4.0,-999.0,69,0.00,,,0.00,WeatherSnoop3.0,2013-05-10 18:50:00,
2013-05-10 13:55:00,65.8,55.3,29.96,ENE,61,5.0,-999.0,69,0.00,,,0.00,WeatherSnoop3.0,2013-05-10 18:55:00,
2013-05-10 14:00:00,66.4,54.7,29.96,NNW,346,2.0,-999.0,66,0.00,,,0.00,WeatherSnoop3.0,2013-05-10 19:00:00,
2013-05-10 14:05:00,66.7,55.4,29.96,North,5,10.0,-999.0,67,0.00,,,0.00,WeatherSnoop3.0,2013-05-10 19:05:00,
2013-05-10 14:10:00,66.7,55.0,29.96,NNE,20,11.0,-999.0,66,0.00,,,0.00,WeatherSnoop3.0,2013-05-10 19:10:00,
2013-05-10 14:15:00,66.6,55.3,29.96,NNE,32,10.0,-999.0,67,0.00,,,0.00,WeatherSnoop3.0,2013-05-10 19:15:00,
2013-05-10 14:20:00,66.6,54.9,29.96,North,349,5.0,-999.0,66,0.00,,,0.00,WeatherSnoop3.0,2013-05-10 19:20:00,
2013-05-10 14:25:00,66.6,55.3,29.96,NE,35,6.0,-999.0,67,0.00,,,0.00,WeatherSnoop3.0,2013-05-10 19:25:00,
2013-05-10 14:30:00,66.5,55.2,29.96,NNE,25,12.0,-999.0,67,0.00,,,0.00,WeatherSnoop3.0,2013-05-10 19:30:00,
2013-05-10 14:35:00,66.7,55.0,29.96,ENE,64,7.0,-999.0,66,0.00,,,0.00,WeatherSnoop3.0,2013-05-10 19:35:00,
2013-05-10 14:40:00,67.0,54.8,29.96,NE,43,5.0,-999.0,65,0.00,,,0.00,WeatherSnoop3.0,2013-05-10 19:40:00,
2013-05-10 14:45:00,66.8,53.8,29.96,North,357,5.0,-999.0,63,0.00,,,0.00,WeatherSnoop3.0,2013-05-10 19:45:00,
2013-05-10 14:50:00,67.1,56.2,29.96,NNE,18,9.0,-999.0,68,0.00,,,0.00,WeatherSnoop3.0,2013-05-10 19:50:00,
2013-05-10 14:55:00,67.5,55.3,29.96,North,354,4.0,-999.0,65,0.00,,,0.00,WeatherSnoop3.0,2013-05-10 19:55:00,
2013-05-10 15:00:00,67.9,54.8,29.96,NNE,20,4.0,-999.0,63,0.00,,,0.00,WeatherSnoop3.0,2013-05-10 20:00:00,
2013-05-10 15:05:00,68.0,55.8,29.97,North,11,5.0,-999.0,65,0.00,,,0.00,WeatherSnoop3.0,2013-05-10 20:05:00,
2013-05-10 15:10:00,67.9,53.9,29.97,NE,53,4.0,-999.0,61,0.00,,,0.00,WeatherSnoop3.0,2013-05-10 20:10:00,
2013-05-10 15:15:00,67.7,54.6,29.97,NE,39,2.0,-999.0,63,0.00,,,0.00,WeatherSnoop3.0,2013-05-10 20:15:00,
2013-05-10 15:20:00,67.6,54.5,29.97,NE,43,4.0,-999.0,63,0.00,,,0.00,WeatherSnoop3.0,2013-05-10 20:20:00,
2013-05-10 15:25:00,67.3,54.3,29.96,NNW,337,8.0,-999.0,63,0.00,,,0.00,WeatherSnoop3.0,2013-05-10 20:25:00,
2013-05-10 15:30:00,67.5,54.5,29.96,NNW,347,3.0,-999.0,63,0.00,,,0.00,WeatherSnoop3.0,2013-05-10 20:30:00,
2013-05-10 15:35:00,68.1,55.0,29.96,NE,36,8.0,-999.0,63,0.00,,,0.00,WeatherSnoop3.0,2013-05-10 20:35:00,
2013-05-10 15:40:00,67.9,55.7,29.96,NNE,23,5.0,-999.0,65,0.00,,,0.00,WeatherSnoop3.0,2013-05-10 20:40:00,
2013-05-10 15:45:00,68.5,54.1,29.96,NE,47,8.0,-999.0,60,0.00,,,0.00,WeatherSnoop3.0,2013-05-10 20:45:00,
2013-05-10 15:50:00,68.0,53.6,29.96,NE,39,6.0,-999.0,60,0.00,,,0.00,WeatherSnoop3.0,2013-05-10 20:50:00,
2013-05-10 15:55:00,67.9,53.9,29.96,NNE,20,1.0,-999.0,61,0.00,,,0.00,WeatherSnoop3.0,2013-05-10 20:55:00,
2013-05-10 16:00:00,68.4,54.4,29.96,NNE,26,8.0,-999.0,61,0.00,,,0.00,WeatherSnoop3.0,2013-05-10 21:00:00,
2013-05-10 16:05:00,68.5,55.4,29.96,ENE,68,3.0,-999.0,63,0.00,,,0.00,WeatherSnoop3.0,2013-05-10 21:05:00,
2013-05-10 16:10:00,68.8,54.3,29.96,North,349,5.0,-999.0,60,0.00,,,0.00,WeatherSnoop3.0,2013-05-10 21:10:00,
2013-05-10 16:15:00,69.3,55.7,29.95,ENE,58,7.0,-999.0,62,0.00,,,0.00,WeatherSnoop3.0,2013-05-10 21:15:00,
2013-05-10 16:20:00,69.1,54.6,29.95,North,8,10.0,-999.0,60,0.00,,,0.00,WeatherSnoop3.0,2013-05-10 21:20:00,
2013-05-10 16:25:00,68.3,52.9,29.95,West,270,2.0,-999.0,58,0.00,,,0.00,WeatherSnoop3.0,2013-05-10 21:25:00,
2013-05-10 16:30:00,68.0,53.1,29.95,North,8,8.0,-999.0,59,0.00,,,0.00,WeatherSnoop3.0,2013-05-10 21:30:00,
2013-05-10 16:35:00,67.5,54.5,29.95,NE,50,1.0,-999.0,63,0.00,,,0.00,WeatherSnoop3.0,2013-05-10 21:35:00,
2013-05-10 16:40:00,68.4,54.0,29.95,North,8,6.0,-999.0,60,0.00,,,0.00,WeatherSnoop3.0,2013-05-10 21:40:00,
2013-05-10 16:45:00,68.7,53.3,29.95,NE,56,4.0,-999.0,58,0.00,,,0.00,WeatherSnoop3.0,2013-05-10 21:45:00,
2013-05-10 16:50:00,68.6,52.8,29.94,NNE,20,7.0,-999.0,57,0.00,,,0.00,WeatherSnoop3.0,2013-05-10 21:50:00,
2013-05-10 16:55:00,67.8,52.9,29.94,NNE,26,4.0,-999.0,59,0.00,,,0.00,WeatherSnoop3.0,2013-05-10 21:55:00,
2013-05-10 16:58:00,67.7,52.8,29.94,NNE,13,3.0,-999.0,59,0.00,,,0.00,WeatherSnoop3.0,2013-05-10 21:58:00,
2013-05-10 16:59:00,67.7,53.3,29.94,NNE,15,5.0,-999.0,60,0.00,,,0.00,WeatherSnoop3.0,2013-05-10 21:59:00,
2013-05-10 17:01:00,67.6,51.8,29.94,NE,34,7.0,-999.0,57,0.00,,,0.00,WeatherSnoop3.0,2013-05-10 22:01:00,
2013-05-10 17:02:00,67.5,52.2,29.94,NNE,15,3.0,-999.0,58,0.00,,,0.00,WeatherSnoop3.0,2013-05-10 22:02:00,
2013-05-10 17:07:00,67.3,52.0,29.94,North,357,3.0,-999.0,58,0.00,,,0.00,WeatherSnoop3.0,2013-05-10 22:07:00,
2013-05-10 17:08:00,67.3,52.9,29.94,NE,34,7.0,-999.0,60,0.00,,,0.00,WeatherSnoop3.0,2013-05-10 22:08:00,
2013-05-10 17:13:00,67.4,53.0,29.94,North,10,10.0,-999.0,60,0.00,,,0.00,WeatherSnoop3.0,2013-05-10 22:13:00,
2013-05-10 17:18:00,68.2,54.2,29.94,NE,36,10.0,-999.0,61,0.00,,,0.00,WeatherSnoop3.0,2013-05-10 22:18:00,
2013-05-10 17:23:00,68.3,52.9,29.93,North,5,3.0,-999.0,58,0.00,,,0.00,WeatherSnoop3.0,2013-05-10 22:23:00,
2013-05-10 17:28:00,68.5,52.7,29.93,NNE,20,10.0,-999.0,57,0.00,,,0.00,WeatherSnoop3.0,2013-05-10 22:28:00,
2013-05-10 17:33:00,68.7,52.4,29.93,NNE,33,2.0,-999.0,56,0.00,,,0.00,WeatherSnoop3.0,2013-05-10 22:33:00,
2013-05-10 17:38:00,69.1,51.7,29.93,NNE,26,11.0,-999.0,54,0.00,,,0.00,WeatherSnoop3.0,2013-05-10 22:38:00,
2013-05-10 17:43:00,68.8,52.0,29.93,ENE,68,3.0,-999.0,55,0.00,,,0.00,WeatherSnoop3.0,2013-05-10 22:43:00,
2013-05-10 17:48:00,68.7,53.3,29.93,NNE,29,8.0,-999.0,58,0.00,,,0.00,WeatherSnoop3.0,2013-05-10 22:48:00,
2013-05-10 17:53:00,68.5,51.2,29.93,North,349,7.0,-999.0,54,0.00,,,0.00,WeatherSnoop3.0,2013-05-10 22:53:00,
2013-05-10 17:58:00,68.2,51.4,29.93,NE,49,4.0,-999.0,55,0.00,,,0.00,WeatherSnoop3.0,2013-05-10 22:58:00,
2013-05-10 18:03:00,68.2,52.4,29.93,NNE,22,3.0,-999.0,57,0.00,,,0.00,WeatherSnoop3.0,2013-05-10 23:03:00,
2013-05-10 18:08:00,68.5,53.1,29.93,NE,39,2.0,-999.0,58,0.00,,,0.00,WeatherSnoop3.0,2013-05-10 23:08:00,
2013-05-10 18:13:00,68.5,52.2,29.93,NNE,23,4.0,-999.0,56,0.00,,,0.00,WeatherSnoop3.0,2013-05-10 23:13:00,
2013-05-10 18:18:00,68.4,52.6,29.93,NNE,32,6.0,-999.0,57,0.00,,,0.00,WeatherSnoop3.0,2013-05-10 23:18:00,
2013-05-10 18:23:00,68.2,52.4,29.93,ENE,58,4.0,-999.0,57,0.00,,,0.00,WeatherSnoop3.0,2013-05-10 23:23:00,
2013-05-10 18:28:00,68.0,51.2,29.93,NNE,16,8.0,-999.0,55,0.00,,,0.00,WeatherSnoop3.0,2013-05-10 23:28:00,
2013-05-10 18:33:00,67.9,52.1,29.93,ENE,61,3.0,-999.0,57,0.00,,,0.00,WeatherSnoop3.0,2013-05-10 23:33:00,
2013-05-10 18:38:00,67.8,51.5,29.93,NNE,15,8.0,-999.0,56,0.00,,,0.00,WeatherSnoop3.0,2013-05-10 23:38:00,
2013-05-10 18:43:00,67.7,51.9,29.93,NE,36,6.0,-999.0,57,0.00,,,0.00,WeatherSnoop3.0,2013-05-10 23:43:00,
2013-05-10 18:48:00,67.7,52.4,29.93,NE,50,3.0,-999.0,58,0.00,,,0.00,WeatherSnoop3.0,2013-05-10 23:48:00,
2013-05-10 18:53:00,67.6,52.8,29.93,NE,37,6.0,-999.0,59,0.00,,,0.00,WeatherSnoop3.0,2013-05-10 23:53:00,
2013-05-10 18:58:00,67.5,52.2,29.94,ENE,68,6.0,-999.0,58,0.00,,,0.00,WeatherSnoop3.0,2013-05-10 23:58:00,
2013-05-10 19:03:00,67.5,52.7,29.93,NE,39,3.0,-999.0,59,0.00,,,0.00,WeatherSnoop3.0,2013-05-11 00:03:00,
2013-05-10 19:08:00,67.3,52.9,29.94,NE,47,4.0,-999.0,60,0.00,,,0.00,WeatherSnoop3.0,2013-05-11 00:08:00,
2013-05-10 19:13:00,67.1,53.6,29.94,ENE,58,1.0,-999.0,62,0.00,,,0.00,WeatherSnoop3.0,2013-05-11 00:13:00,
2013-05-10 19:18:00,66.7,53.3,29.94,NE,35,4.0,-999.0,62,0.00,,,0.00,WeatherSnoop3.0,2013-05-11 00:18:00,
2013-05-10 19:23:00,66.2,52.8,29.94,NE,50,2.0,-999.0,62,0.00,,,0.00,WeatherSnoop3.0,2013-05-11 00:23:00,
2013-05-10 19:28:00,65.7,54.4,29.94,NE,49,3.0,-999.0,67,0.00,,,0.00,WeatherSnoop3.0,2013-05-11 00:28:00,
2013-05-10 19:33:00,65.2,53.5,29.94,ENE,71,1.0,-999.0,66,0.00,,,0.00,WeatherSnoop3.0,2013-05-11 00:33:00,
2013-05-10 19:38:00,64.9,54.5,29.95,ENE,71,0.0,-999.0,69,0.00,,,0.00,WeatherSnoop3.0,2013-05-11 00:38:00,
2013-05-10 19:43:00,64.7,54.7,29.95,ENE,71,0.0,-999.0,70,0.00,,,0.00,WeatherSnoop3.0,2013-05-11 00:43:00,
2013-05-10 19:48:00,64.4,54.4,29.95,ENE,71,1.0,-999.0,70,0.00,,,0.00,WeatherSnoop3.0,2013-05-11 00:48:00,
2013-05-10 19:53:00,64.2,53.4,29.95,ENE,68,0.0,-999.0,68,0.00,,,0.00,WeatherSnoop3.0,2013-05-11 00:53:00,
2013-05-10 19:58:00,63.9,54.3,29.95,ENE,68,0.0,-999.0,71,0.00,,,0.00,WeatherSnoop3.0,2013-05-11 00:58:00,
2013-05-10 20:03:00,63.5,54.3,29.95,ENE,68,0.0,-999.0,72,0.00,,,0.00,WeatherSnoop3.0,2013-05-11 01:03:00,
2013-05-10 20:08:00,63.0,53.1,29.96,ENE,68,0.0,-999.0,70,0.00,,,0.00,WeatherSnoop3.0,2013-05-11 01:08:00,
2013-05-10 20:13:00,62.6,53.4,29.96,ENE,68,0.0,-999.0,72,0.00,,,0.00,WeatherSnoop3.0,2013-05-11 01:13:00,
2013-05-10 20:18:00,62.0,52.5,29.96,ENE,68,0.0,-999.0,71,0.00,,,0.00,WeatherSnoop3.0,2013-05-11 01:18:00,
2013-05-10 20:23:00,61.4,52.3,29.97,ENE,68,0.0,-999.0,72,0.00,,,0.00,WeatherSnoop3.0,2013-05-11 01:23:00,
2013-05-10 20:28:00,60.9,52.6,29.96,ENE,68,0.0,-999.0,74,0.00,,,0.00,WeatherSnoop3.0,2013-05-11 01:28:00,
2013-05-10 20:33:00,60.4,52.4,29.96,ENE,68,0.0,-999.0,75,0.00,,,0.00,WeatherSnoop3.0,2013-05-11 01:33:00,
2013-05-10 20:38:00,60.0,52.4,29.97,ENE,68,0.0,-999.0,76,0.00,,,0.00,WeatherSnoop3.0,2013-05-11 01:38:00,
2013-05-10 20:43:00,59.6,52.7,29.97,ENE,68,0.0,-999.0,78,0.00,,,0.00,WeatherSnoop3.0,2013-05-11 01:43:00,
2013-05-10 20:48:00,59.0,52.5,29.97,ENE,68,0.0,-999.0,79,0.00,,,0.00,WeatherSnoop3.0,2013-05-11 01:48:00,
2013-05-10 20:53:00,58.3,52.5,29.97,ENE,68,0.0,-999.0,81,0.00,,,0.00,WeatherSnoop3.0,2013-05-11 01:53:00,
2013-05-10 20:58:00,57.7,52.9,29.97,ENE,68,0.0,-999.0,84,0.00,,,0.00,WeatherSnoop3.0,2013-05-11 01:58:00,
2013-05-10 21:03:00,57.0,52.9,29.97,ENE,68,0.0,-999.0,86,0.00,,,0.00,WeatherSnoop3.0,2013-05-11 02:03:00,
2013-05-10 21:08:00,56.5,52.4,29.97,ENE,68,0.0,-999.0,86,0.00,,,0.00,WeatherSnoop3.0,2013-05-11 02:08:00,
2013-05-10 21:13:00,56.1,52.0,29.97,ENE,68,0.0,-999.0,86,0.00,,,0.00,WeatherSnoop3.0,2013-05-11 02:13:00,
2013-05-10 21:18:00,55.8,51.4,29.97,ENE,68,0.0,-999.0,85,0.00,,,0.00,WeatherSnoop3.0,2013-05-11 02:18:00,
2013-05-10 21:23:00,55.5,51.4,29.97,ENE,68,0.0,-999.0,86,0.00,,,0.00,WeatherSnoop3.0,2013-05-11 02:23:00,
2013-05-10 21:28:00,55.2,52.0,29.98,ENE,68,0.0,-999.0,89,0.00,,,0.00,WeatherSnoop3.0,2013-05-11 02:28:00,
2013-05-10 21:33:00,55.0,52.1,29.98,ENE,68,0.0,-999.0,90,0.00,,,0.00,WeatherSnoop3.0,2013-05-11 02:33:00,
2013-05-10 21:38:00,54.8,51.9,29.98,ENE,68,0.0,-999.0,90,0.00,,,0.00,WeatherSnoop3.0,2013-05-11 02:38:00,
2013-05-10 21:43:00,54.7,51.8,29.98,ENE,68,0.0,-999.0,90,0.00,,,0.00,WeatherSnoop3.0,2013-05-11 02:43:00,
2013-05-10 21:48:00,54.3,51.4,29.98,ENE,68,0.0,-999.0,90,0.00,,,0.00,WeatherSnoop3.0,2013-05-11 02:48:00,
2013-05-10 21:53:00,53.8,50.9,29.98,ENE,68,0.0,-999.0,90,0.00,,,0.00,WeatherSnoop3.0,2013-05-11 02:53:00,
2013-05-10 21:58:00,53.3,50.4,29.98,ENE,68,0.0,-999.0,90,0.00,,,0.00,WeatherSnoop3.0,2013-05-11 02:58:00,
2013-05-10 22:03:00,52.9,50.3,29.98,ENE,68,0.0,-999.0,91,0.00,,,0.00,WeatherSnoop3.0,2013-05-11 03:03:00,
2013-05-10 22:08:00,52.4,49.9,29.98,ENE,68,0.0,-999.0,91,0.00,,,0.00,WeatherSnoop3.0,2013-05-11 03:08:00,
2013-05-10 22:13:00,51.9,49.6,29.98,ENE,68,0.0,-999.0,92,0.00,,,0.00,WeatherSnoop3.0,2013-05-11 03:13:00,
2013-05-10 22:18:00,51.7,49.7,29.99,ENE,68,0.0,-999.0,93,0.00,,,0.00,WeatherSnoop3.0,2013-05-11 03:18:00,
2013-05-10 22:23:00,51.5,49.5,29.98,ENE,68,0.0,-999.0,93,0.00,,,0.00,WeatherSnoop3.0,2013-05-11 03:23:00,
2013-05-10 22:28:00,51.1,49.1,29.98,ENE,68,0.0,-999.0,93,0.00,,,0.00,WeatherSnoop3.0,2013-05-11 03:28:00,
2013-05-10 22:33:00,51.2,49.8,29.98,ENE,68,0.0,-999.0,95,0.00,,,0.00,WeatherSnoop3.0,2013-05-11 03:33:00,
2013-05-10 22:38:00,51.7,50.0,29.99,ENE,68,0.0,-999.0,94,0.00,,,0.00,WeatherSnoop3.0,2013-05-11 03:38:00,
2013-05-10 22:43:00,51.8,49.8,29.99,ENE,68,0.0,-999.0,93,0.00,,,0.00,WeatherSnoop3.0,2013-05-11 03:43:00,
2013-05-10 22:48:00,51.8,49.6,29.99,ENE,68,0.0,-999.0,92,0.00,,,0.00,WeatherSnoop3.0,2013-05-11 03:48:00,
2013-05-10 22:53:00,51.5,49.3,29.99,ENE,68,0.0,-999.0,92,0.00,,,0.00,WeatherSnoop3.0,2013-05-11 03:53:00,
2013-05-10 22:58:00,51.3,49.3,29.99,ENE,68,0.0,-999.0,93,0.00,,,0.00,WeatherSnoop3.0,2013-05-11 03:58:00,
2013-05-10 23:01:00,51.1,48.9,29.99,ENE,68,0.0,-999.0,92,0.00,,,0.00,WeatherSnoop3.0,2013-05-11 04:01:00,
2013-05-10 23:02:00,51.0,48.8,29.99,ENE,68,0.0,-999.0,92,0.00,,,0.00,WeatherSnoop3.0,2013-05-11 04:02:00,
2013-05-10 23:03:00,51.0,48.8,29.99,ENE,68,0.0,-999.0,92,0.00,,,0.00,WeatherSnoop3.0,2013-05-11 04:03:00,
2013-05-10 23:05:00,50.9,48.9,29.99,ENE,68,0.0,-999.0,93,0.00,,,0.00,WeatherSnoop3.0,2013-05-11 04:05:00,
2013-05-10 23:10:00,50.7,48.8,29.99,ENE,68,0.0,-999.0,93,0.00,,,0.00,WeatherSnoop3.0,2013-05-11 04:10:00,
2013-05-10 23:14:00,50.4,48.5,29.99,ENE,68,0.0,-999.0,93,0.00,,,0.00,WeatherSnoop3.0,2013-05-11 04:14:00,
2013-05-10 23:19:00,50.6,49.2,29.99,ENE,68,0.0,-999.0,95,0.00,,,0.00,WeatherSnoop3.0,2013-05-11 04:19:00,
2013-05-10 23:24:00,51.1,49.7,29.99,ENE,68,0.0,-999.0,95,0.00,,,0.00,WeatherSnoop3.0,2013-05-11 04:24:00,
2013-05-10 23:29:00,51.3,49.6,29.99,ENE,68,0.0,-999.0,94,0.00,,,0.00,WeatherSnoop3.0,2013-05-11 04:29:00,
2013-05-10 23:34:00,51.4,49.7,30.00,ENE,68,0.0,-999.0,94,0.00,,,0.00,WeatherSnoop3.0,2013-05-11 04:34:00,
2013-05-10 23:39:00,51.2,49.2,30.00,ENE,68,0.0,-999.0,93,0.00,,,0.00,WeatherSnoop3.0,2013-05-11 04:39:00,
2013-05-10 23:44:00,51.0,49.0,30.00,ENE,68,0.0,-999.0,93,0.00,,,0.00,WeatherSnoop3.0,2013-05-11 04:44:00,
2013-05-10 23:49:00,50.7,48.8,30.00,ENE,68,0.0,-999.0,93,0.00,,,0.00,WeatherSnoop3.0,2013-05-11 04:49:00,
2013-05-10 23:54:00,50.4,48.7,30.00,ENE,68,0.0,-999.0,94,0.00,,,0.00,WeatherSnoop3.0,2013-05-11 04:54:00,
2013-05-10 23:59:00,50.2,48.5,30.00,ENE,68,0.0,-999.0,94,0.00,,,0.00,WeatherSnoop3.0,2013-05-11 04:59:00,